Погода в Шелексе

Россия / Архангельская область     62°53′43″N   40°18′31″E
темп.,
°C
ветер,
м/с
пор.,
м/с
влажн.,
%
обл.,
%
осадки,
мм/ч
давл.,
гПа
погр.,
м
12 мая, ср
ср1200:00+13ююз41380100 0.0 1024357
03:00+12юз4128491 0.0 1024300
06:00+13юз31178100 0.0 1025346
09:00+19юз485353 0.0 1025694
12:00+23юз464185 0.0 10251438
15:00+24юз45375 0.0 10241749
18:00+24юз24424 0.0 10231279
21:00+17ю24670 0.0 102371
13 мая, чт
чт1300:00+14ююз22730 0.0 102435
03:00+13ююз23800 0.0 102361
06:00+15ююз26700 0.0 1023188
09:00+21ююз35515 0.0 1022606
12:00+24ююз46365 0.0 10211812
15:00+24ююз3539100 0.0 10201794
18:00+19ююз225840 0.0 101948
21:00+17ю247224 0.0 101870
14 мая, пт
пт1400:00+15ю238015 0.0 101743
03:00+13ююв22875 0.0 101542
06:00+15ю31077100 0.1 1014412
09:00+14ююв31094100 2.3 1013512
12:00+18ююз5771100 1.4 10121244
15:00+20ююз68375 1.6 10122189
18:00+17юз511537 0.0 10121731
21:00+12юз411806 0.1 1013690
15 мая, сб
сб1500:00+11ююз2892100 0.3 1013325
03:00+10ююз289489 0.5 1013222
06:00+12юз278386 0.1 1013274
09:00+15зюз246763 0.1 1013608
12:00+20зюз234427 0.0 10131618
15:00+22всв1238100 0.0 10122004
18:00+21в2446100 0.0 1010806
21:00+16всв41164100 0.0 1009451
16 мая, вс
вс1600:00+14всв41076100 0.6 1008481
03:00+12всв4991100 2.2 1006460
06:00+12в3898100 5.5 1004372
09:00+15юв259296 5.8 1003455
12:00+18ююз4674100 1.6 1002985
15:00+18зюз4675100 4.5 1002939
18:00+14зюз378967 1.4 1002583
21:00+10з3696100 1.5 1003593